Regional Weather Roundup
Issued by NWS Charleston, SC

Current Version | Previous Version | Graphics & Text | Print | Product List | Glossary On
Versions: 1 2 3 4 5 6 7 8 9 10 11 12 13 14 15 16 17 18 19 20 21 22 23 24 25 26 27 28 29 30 31 32 33 34 35 36 37 38 39 40 41 42 43 44 45 46 47 48 49 50
000
ASUS42 KCHS 232212
RWRCHS

REGIONAL WEATHER ROUNDUP
NATIONAL WEATHER SERVICE CHARLESTON SC
500 PM EST MON JAN 23 2017

NOTE: "FAIR" INDICATES FEW OR NO CLOUDS BELOW 12,000 FEET WITH NO
SIGNIFICANT WEATHER AND/OR OBSTRUCTIONS TO VISIBILITY.

NOT ALL STATIONS ARE QUALITY CONTROLLED. USE DATA WITH CAUTION...
ESPECIALLY DEWPOINT OBSERVATIONS.

SCZ027-030-031-034>040-042>050-232300-
...SOUTHEAST SOUTH CAROLINA...

CITY           SKY/WX    TMP DP  RH WIND       PRES   REMARKS
N CHARLESTON   MOCLDY    59  48  67 W10       29.33R
WATERFRONT PRK   N/A     58  50  74 W6        29.32R
MOUNT PLEASANT CLOUDY    57  50  77 W8        29.34R
JOHNS ISLAND   FAIR      59  50  72 W10       29.34R
PINOPOLIS        N/A     57  52  82 W8        29.24R
MONCKS CORNER  CLOUDY    55  46  71 CALM      29.33R
SUMMERVILLE    CLOUDY    57  52  82 W6        29.34R
BEAUFORT MCAS  PTCLDY    60  50  69 W12       29.36R
BEAUFORT ARPT  FAIR      59  50  72 W12G22    29.36R
HILTON HEAD IS MOCLDY    61  52  72 W8G17     29.38R
WALTERBORO     MOCLDY    59  50  72 W7G16     29.36R
ALLENDALE      FAIR      61  52  72 VRB5      29.35R

...SOUTHERN MIDLANDS AND PEE DEE...

CITY           SKY/WX    TMP DP  RH WIND       PRES   REMARKS
GEORGETOWN     CLOUDY    55  48  76 W7        29.32R
KINGSTREE      CLOUDY    55  46  71 W8        29.32R
ORANGEBURG     CLOUDY    58  49  72 W10       29.34R
BARNWELL       MOCLDY    63  54  72 W5        29.35R
AIKEN          FAIR      59  50  72 NW7       29.38R
MANNING        CLOUDY    55  46  71 NW3       29.32R
COLUMBIA       MOCLDY    59  48  67 W12       29.33R
SUMTER         CLOUDY    56  47  74 W6        29.31R
FLORENCE       CLOUDY    56  49  77 W9        29.31R
MYRTLE BEACH   MOCLDY    57  46  67 NW8       29.31R
N MYRTLE BEACH LGT RAIN  54  51  90 W5        29.28R

$$

GAZ063-065-086>088-099>101-113>116-118-119-134>141-150-232300-
...SOUTHEAST GEORGIA...

CITY           SKY/WX    TMP DP  RH WIND       PRES   REMARKS
SAVANNAH ARPT  MOCLDY    60  52  74 W15       29.38R
HUNTER AAF     MOCLDY    58  58  99 W13       29.36R
FORT STEWART   MOCLDY    63  52  67 W15G25    29.39R
STATESBORO     CLOUDY    63  54  72 W17G23    29.40R
SYLVANIA       PTCLDY   N/A N/A N/A W15G21    29.38R
CLAXTON        MOCLDY   N/A N/A N/A W20G25    29.40R

...CSRA...CENTRAL AND FAR SOUTHEAST GEORGIA...

CITY           SKY/WX    TMP DP  RH WIND       PRES   REMARKS
THOMSON        PTCLDY    64  54  68 NW7G17    29.43R
AUGUSTA-BUSH   CLOUDY    66  49  54 NW7       29.35R
AUGUSTA-DANIEL CLOUDY    64  48  56 NW8       29.36R
SWAINSBORO     CLOUDY    63  50  63 MISG      29.43R
VIDALIA        MOCLDY    63  54  72 W13G24    29.44R
EASTMAN        CLOUDY    62  41  45 W7G18     29.52R
HAZLEHURST     CLOUDY    62  54  74 NW7G16    29.47R
ALMA           CLOUDY    61  52  72 W14G22    29.48R
WAYCROSS       CLOUDY    63  58  84 W15G21    29.49R
JESUP          CLOUDY    63  52  67 NW10G22   29.45R
BAXLEY         MOCLDY    63  55  77 W13G20    29.46R
BRUNSWICK      MOCLDY    63  55  77 W13G29    29.45R
SAINT SIMONS   CLOUDY    62  54  74 W17G26    29.44R

$$

SCZ027-028-034-036>038-045-046-048>050-GAZ119-141-232300-
...LAKE AND SUPPLEMENTAL COASTAL OBSERVATIONS...

STATION/POSITION TIME  TEMP    WIND        PRES    WAVE   SWELL
                       AIR SEA DIR/SP/G            HT/PER HT/PER/DIR
                 (UTC) (F)     (DEG/KT/KT) (MB)    (FT/S) (FT/S/D)
WINYAH BAY       2045   55     260/  7      991.0
LAKE MURRAY      2120   58     280/  7/ 16  992.6R
ACE BASIN NERRS  2045   59     280/  2      993.0
FORT PULASKI     2136   60 59  280/ 12/ 15  994.6R
SAPELO ISLAND    2100   62     280/ 19      995.0

$$

ANZ835-935-AMZ111-154-330-350-352-354-370-450-454-472-232300-
...C-MAN AND BUOY OBSERVATIONS...

STATION/POSITION TIME  TEMP    WIND        PRES    WAVE   SWELL
                       AIR SEA DIR/SP/G            HT/PER HT/PER/DIR
                 (UTC) (F)     (DEG/KT/KT) (MB)    (FT/S) (FT/S/D)
BUOY 41004       2050   60 69  280/ 23/ 29  991.0    9/ 8   3/160/11
BUOY 41008       2050   61 60  270/ 21/ 25  994.0    5/ 5   2/ 90/13
FOLLY BEACH CMAN 2100   58     280/  8/ 12  993.0R
CAPERS NEARSHORE NOT AVBL
FRIPP NEARSHORE  2108   59 58  280/ 21/ 29  992.9R


STATION/POSITION TIME  TEMP    WIND        PRES    WAVE   SWELL
                       AIR SEA DIR/SP/G            HT/PER HT/PER/DIR
                 (UTC) (F)     (DEG/KT/KT) (MB)    (FT/S) (FT/S/D)
5E ST. MARYS GA  2200      62                N/A     4/ 4   2/ 80/14
FRYING PAN BUOY  2150   59 69  260/ 21/ 25  990.9R  10/10   7/180/10
BUOY 41025       2150   62 76   10/ 10/ 12  989.0F   7/ 9   7/170/ 9
CAPE LOOKOUT NC  2100   58      70/  2/  3  989.6R
BUOY 41002       2150   71 71  230/ 21/ 27  991.7R  13/10  11/210/10
BUOY 41010       NOT AVBL
ST AUGUSTINE FL  2200   65 64  280/ 10/ 12  999.6R


$$




USA.gov is the U.S. government's official web portal to all federal, state and local government web resources and services.